Dewpoint
16 16 15 14 14 14 13 13 13 13 12 13 13 13 12 5 -8 -9 -4 10 11 12 13 13 13 14 13 8 3 -4 -7 -7 -6 -2 3 3 4 10 9 11 12 12 7
16 16 15 14 13 13 13 13 13 13 13 13 13 13 11 3 -7 -8 10 13 13 12 12 14 14 13 9 5 -2 -7 -7 -6 -4 -2 2 10 11 11 11 9 12 11 7
16 16 15 13 13 13 13 13 13 13 13 13 13 13 9 -1 -6 -5 10 12 12 12 13 14 13 11 7 1 -7 -6 -5 -4 -2 4 9 13 11 11 11 12 12 8 11
16 15 16 13 13 13 13 11 13 13 13 13 13 11 5 -3 -1 -3 10 11 12 12 13 12 10 8 4 -3 -6 -4 -1 -0 3 11 10 13 12 9 10 10 10 10 7
16 15 16 14 12 12 13 11 11 12 12 12 12 10 4 9 8 2 10 11 11 12 12 11 9 6 3 -4 -4 -1 0 0 5 11 11 12 11 11 11 11 10 10 9
15 16 15 14 13 13 12 13 12 11 12 12 11 10 12 11 10 4 11 11 11 12 12 10 8 6 2 -3 -2 -1 -0 0 10 11 11 11 13 10 11 10 11 10 12
16 16 15 13 13 12 11 15 14 12 11 11 10 10 9 10 6 7 10 12 12 12 11 9 6 2 2 -2 -1 -1 -1 1 10 10 11 11 11 11 11 11 9 6 6
16 16 16 14 13 13 12 12 13 14 12 10 11 10 9 6 3 11 11 11 11 11 9 7 2 2 1 0 -1 -1 -1 -1 10 11 11 11 11 10 10 7 4 4 3
15 15 16 15 14 14 13 13 12 13 13 12 11 11 11 3 1 9 11 10 10 8 7 4 2 1 1 0 -1 -2 -1 1 10 10 11 10 8 7 6 3 2 3 3
14 14 15 15 15 14 14 14 13 14 14 13 12 12 12 4 7 10 11 9 9 6 5 0 1 2 1 0 -1 -1 -1 2 10 10 10 8 5 2 2 2 2 3 3
11 13 14 14 14 14 14 14 14 13 13 13 13 12 13 10 11 12 13 12 10 5 3 1 1 2 2 1 -1 -1 1 9 10 10 10 2 3 3 3 3 3 3 4
-3 7 11 13 14 14 14 14 14 13 13 12 12 12 13 13 13 11 12 12 10 4 2 2 2 4 3 1 -0 0 8 9 10 10 8 3 3 3 3 3 4 4 4
-5 -5 2 9 12 13 14 14 14 13 13 13 12 13 13 13 14 13 12 12 12 8 3 4 3 5 10 9 1 6 8 9 10 10 5 4 4 5 5 4 4 4 4
-6 -6 -6 -2 6 11 13 14 14 14 13 12 12 12 12 13 13 13 12 12 12 10 11 9 10 11 8 9 9 8 7 9 9 10 5 4 5 5 6 6 6 5 5
-10 -7 -6 -6 -4 2 9 12 13 14 13 13 12 12 12 12 13 13 12 9 11 12 11 10 9 9 8 9 9 9 7 7 6 6 10 4 4 5 6 6 7 7 7
-10 -11 -9 -7 -6 -6 -2 6 12 13 13 13 13 12 12 12 12 13 12 12 11 10 8 7 5 8 9 9 9 8 7 5 6 6 9 4 4 4 5 6 6 7 8
-16 -15 -12 -11 -8 -7 -6 -3 5 11 13 13 13 12 12 12 12 12 12 12 12 11 8 3 6 5 9 8 9 9 8 9 6 5 7 10 6 5 5 5 5 6 7
-11 -14 -17 -16 -13 -9 -7 -6 -3 3 11 12 13 13 13 12 12 12 12 12 12 12 9 6 3 6 7 6 9 9 9 8 9 9 8 7 6 7 6 6 6 8 10
-7 -8 -11 -15 -18 -15 -11 -8 -7 -5 2 10 12 13 13 13 12 13 12 12 12 12 10 6 4 4 8 9 9 9 9 9 9 10 8 8 7 6 7 6 7 7 7
-6 -7 -8 -10 -14 -18 -16 -13 -11 -8 -5 2 10 13 13 13 13 13 13 12 13 12 11 9 3 1 7 9 9 9 9 8 9 9 9 8 8 7 8 8 7 8 8
-2 -3 -6 -8 -9 -13 -15 -13 -12 -9 -8 -5 3 11 13 13 13 13 13 12 12 12 12 11 7 -1 2 8 9 9 10 9 9 9 8 7 7 8 8 8 8 8 8
0 -1 -3 -5 -8 -9 -11 -13 -7 -3 -4 -2 -3 2 11 13 13 13 14 13 12 11 12 12 11 6 6 7 9 9 9 10 10 9 8 6 6 8 8 7 8 8 8
2 3 -0 -3 -4 -7 -8 -9 -11 -12 -5 -1 -1 -2 2 12 13 13 13 13 13 12 12 12 12 11 4 7 7 9 8 8 9 10 8 7 7 7 7 7 8 9 8
1 2 3 0 -2 -3 -7 -8 -6 -3 -3 -2 3 1 -2 7 13 13 13 13 13 12 12 11 12 12 9 7 6 9 9 10 10 10 9 8 7 7 7 7 7 9 9
2 2 4 1 -1 -2 -3 -8 -10 -3 -2 1 2 6 7 5 13 13 12 13 13 13 12 11 11 12 12 5 4 8 10 9 10 10 10 6 7 7 8 7 7 9 9
2 3 3 1 1 -0 -2 -5 -8 -3 -0 1 3 5 7 7 11 13 13 13 13 12 12 12 11 11 12 10 4 5 9 9 10 9 9 8 6 6 7 7 7 9 9
Wind_Speed
2 12 17 18 19 17 15 13 12 12 11 9 8 6 4 6 11 15 17 15 13 13 12 12 16 18 13 11 11 11 11 12 12 14 15 16 19 19 18 20 17 15 15
6 13 17 18 18 16 15 13 13 12 12 9 7 5 4 7 12 15 17 13 13 12 13 16 18 15 11 11 10 11 13 13 13 13 16 20 18 18 19 18 18 12 16
9 14 19 19 19 17 16 14 13 12 11 9 7 5 4 8 13 16 16 14 13 14 15 17 14 11 10 10 11 12 13 13 13 16 20 16 14 19 18 17 13 15 18
11 14 17 20 19 18 17 15 14 13 11 9 7 6 6 10 12 15 16 13 13 14 13 11 10 9 9 10 11 13 13 13 15 20 14 13 13 14 16 14 13 14 13
10 14 17 20 20 20 17 16 14 14 12 10 8 7 9 9 11 16 17 15 13 14 10 10 10 9 9 9 11 12 12 13 15 15 14 14 13 14 15 11 16 18 18
7 12 17 20 19 20 18 16 15 13 13 11 10 9 10 11 11 18 16 15 14 13 9 8 8 8 8 9 10 11 12 12 15 12 13 15 12 13 15 11 17 15 14
8 11 15 19 19 19 19 17 15 14 13 13 12 11 11 12 13 19 17 15 14 11 8 8 8 8 9 9 10 10 11 11 11 12 12 12 12 12 13 13 13 13 14
8 13 13 17 18 18 17 17 16 15 14 14 14 13 13 13 15 18 17 15 13 11 9 9 8 9 9 9 10 10 11 11 12 12 12 12 12 11 13 12 12 13 15
6 12 12 16 18 17 17 17 17 16 15 14 15 14 14 14 17 18 16 15 13 11 10 10 10 10 9 9 10 10 11 11 11 11 11 10 12 12 12 13 12 13 12
2 5 10 15 15 19 19 18 18 17 17 15 16 15 15 16 17 18 16 14 13 12 11 11 11 10 9 9 10 11 11 11 9 10 9 10 12 11 12 12 11 11 11
0 4 7 10 16 16 19 19 21 19 19 18 17 17 16 18 17 17 17 15 13 12 13 12 12 11 10 10 10 11 11 8 9 8 8 11 11 10 10 10 10 10 9
4 4 6 9 12 17 18 20 22 22 22 22 21 21 20 19 18 17 18 16 14 13 14 13 12 11 10 11 13 12 9 10 8 8 8 9 9 9 8 8 8 7 7
16 9 7 8 11 13 17 20 22 24 25 24 24 23 22 22 22 19 18 19 18 15 16 16 14 13 10 10 12 11 11 10 8 8 8 8 7 7 7 6 5 5 5
25 20 15 12 11 13 16 19 22 25 27 27 27 26 25 25 25 20 20 21 20 17 15 16 14 13 12 11 10 10 11 10 9 8 8 7 6 6 5 5 4 3 3
30 29 24 21 17 15 16 19 22 24 27 29 29 29 30 29 27 25 24 24 22 18 17 18 16 15 14 12 11 10 11 10 10 10 8 8 7 6 5 5 4 3 2
31 33 31 29 26 22 20 18 20 24 26 29 32 32 31 31 29 30 28 26 21 21 20 20 19 17 15 14 13 12 11 12 11 10 9 9 8 7 7 7 6 5 4
30 32 34 34 33 30 27 23 21 23 27 29 32 33 33 32 31 30 30 28 23 22 24 23 20 20 18 16 14 13 12 11 12 12 10 9 9 9 9 9 8 7 6
33 33 33 33 35 35 34 31 28 26 27 31 32 34 34 35 33 33 33 32 25 22 26 27 25 22 21 20 16 14 14 14 12 12 12 12 11 10 11 10 10 9 10
32 34 35 35 35 37 38 37 35 32 30 30 34 34 35 36 37 36 36 33 29 24 27 29 27 24 21 19 17 16 17 16 16 15 14 14 14 13 13 12 12 11 11
28 31 33 35 36 37 38 39 40 38 37 34 34 36 36 37 39 39 38 35 31 28 30 31 29 28 22 20 18 18 17 20 19 19 16 17 17 16 15 15 15 14 13
26 29 32 34 36 38 40 39 40 40 40 39 37 36 36 38 39 41 43 38 37 35 32 34 32 31 29 22 18 16 16 21 23 23 21 21 20 19 19 19 18 17 16
25 27 31 33 36 38 40 41 34 30 35 36 40 39 37 37 37 39 44 43 41 37 31 34 34 31 26 27 22 16 15 17 22 25 24 24 23 22 22 21 21 20 19
23 25 29 32 34 37 39 39 41 41 35 34 40 42 42 38 40 43 41 44 45 40 38 37 38 37 36 29 30 18 13 14 15 19 28 27 26 25 24 23 23 22 20
24 24 26 32 33 34 36 40 38 36 38 38 33 41 43 40 41 42 42 45 45 42 42 41 40 40 38 33 32 32 21 9 13 10 18 27 30 29 28 26 24 24 22
24 23 23 27 32 32 36 39 41 38 35 32 33 31 34 42 41 43 42 41 43 43 42 43 42 41 42 42 39 33 31 27 18 12 10 16 23 31 31 29 27 27 24
21 20 20 24 30 31 35 38 40 37 32 30 32 32 33 36 41 41 44 43 42 43 42 41 42 43 43 43 40 40 35 34 29 29 22 21 18 20 26 30 30 29 27
Wind_Direction
207 180 177 185 185 184 185 180 176 174 174 172 166 161 137 121 131 130 128 121 121 123 124 128 129 128 123 106 95 97 98 95 96 99 99 96 95 90 88 92 86 81 80
214 182 179 185 189 188 188 187 183 181 181 180 175 168 156 138 141 137 129 125 130 135 134 131 132 134 109 97 95 101 100 97 98 102 96 91 92 95 95 92 92 87 86
179 182 180 189 190 191 191 185 183 182 182 185 183 188 173 149 148 145 134 139 138 135 135 136 140 128 106 95 100 104 102 99 93 89 81 88 91 94 96 93 95 80 83
160 183 182 190 195 196 195 196 191 191 192 193 196 193 173 152 153 153 144 151 147 147 153 140 137 123 106 103 107 106 102 98 97 86 102 108 100 92 101 110 109 96 90
169 185 187 189 198 197 197 198 198 197 201 203 198 190 171 158 152 157 153 162 161 157 157 139 145 125 111 113 114 108 103 98 100 105 106 102 102 105 101 92 82 78 85
172 190 201 191 195 195 201 200 202 200 202 203 197 193 169 169 169 159 164 170 169 165 160 148 146 131 124 122 120 113 108 107 97 101 108 105 104 106 112 110 105 101 103
166 188 204 196 201 203 204 200 202 206 203 201 198 193 185 177 174 167 172 178 177 175 172 167 154 140 136 132 127 118 113 111 110 109 109 109 113 111 107 103 103 99 113
191 178 194 205 208 210 209 210 208 207 206 203 201 196 192 189 179 175 181 183 184 183 181 177 164 149 143 140 134 126 119 116 111 113 111 106 111 117 112 99 102 99 103
195 189 192 198 216 216 220 218 218 211 212 209 204 201 195 195 184 184 186 191 193 193 185 181 167 156 151 149 143 134 126 120 119 119 111 115 114 112 103 106 95 95 99
104 181 205 208 209 220 219 219 222 215 213 211 211 204 199 192 188 193 197 199 201 194 190 183 172 164 158 158 152 143 135 124 126 117 120 129 114 110 105 102 100 99 96
141 214 217 216 219 219 222 218 219 222 216 216 215 211 203 200 199 204 206 206 205 197 194 189 180 174 170 166 161 154 145 141 137 130 132 122 116 111 108 105 102 102 98
255 240 231 226 226 224 225 221 218 216 218 217 217 214 210 206 203 202 210 209 209 205 199 195 190 185 180 179 171 166 158 152 149 142 150 130 123 120 117 112 109 107 102
267 257 254 239 236 232 223 222 221 217 215 218 218 216 211 212 203 203 209 207 209 207 202 199 196 194 185 180 183 178 173 167 161 157 162 148 138 132 128 127 121 114 108
263 257 252 252 243 237 232 227 225 220 217 217 218 216 218 216 212 208 207 207 208 207 199 198 199 198 198 192 191 190 184 181 173 170 183 173 165 156 153 151 145 143 127
260 255 250 250 248 243 237 231 227 224 220 220 218 219 219 221 218 214 216 214 211 206 205 203 203 203 201 198 196 196 197 193 191 190 191 197 195 189 189 194 190 195 200
266 259 254 250 248 245 243 239 233 229 225 223 222 221 221 223 223 222 223 221 212 214 211 210 208 205 206 204 206 206 207 205 204 206 202 212 216 215 216 219 220 225 235
262 258 254 249 246 243 242 241 238 234 230 226 224 225 224 226 226 226 226 226 216 215 217 215 211 209 209 211 210 212 210 210 213 216 218 216 229 230 232 234 233 234 249
265 260 255 251 247 242 240 238 238 237 234 230 228 227 225 227 228 227 227 228 221 215 217 219 216 213 212 215 211 213 215 217 217 223 228 232 236 240 242 241 241 239 242
261 259 255 251 247 242 239 237 236 235 234 232 229 229 229 228 228 229 229 228 223 218 220 220 219 217 215 216 213 214 219 224 225 229 233 242 241 241 247 247 246 254 253
258 254 251 248 244 240 239 237 236 234 233 232 230 229 227 229 229 229 231 226 221 221 224 223 220 218 215 218 219 222 226 227 227 233 238 241 244 246 248 248 254 258 256
258 254 248 244 242 238 236 236 235 234 232 232 231 228 229 228 231 228 233 230 227 227 225 227 225 221 217 212 214 222 231 236 237 236 239 240 243 248 251 252 256 258 259
263 253 250 247 241 238 235 236 235 234 233 233 232 232 230 229 230 230 234 233 227 226 222 225 223 219 216 213 208 217 227 236 238 238 240 240 243 247 252 252 254 258 257
265 259 252 245 243 240 237 235 235 238 236 232 229 229 229 227 227 229 233 234 233 227 227 227 227 228 223 216 212 204 215 231 233 236 238 242 243 247 252 252 252 255 255
269 263 260 248 238 236 234 233 232 229 231 231 231 231 229 224 229 228 231 232 233 232 231 233 233 232 228 219 218 215 221 209 212 227 236 238 242 245 248 250 250 253 255
273 263 262 248 235 233 233 232 231 228 230 230 229 228 229 225 223 230 230 229 233 232 233 232 234 231 232 228 228 224 224 229 231 234 240 242 247 247 247 249 249 252 254
270 260 256 245 237 234 229 229 229 227 226 228 226 225 224 227 224 222 224 223 232 233 235 230 232 235 235 233 229 230 227 225 233 237 245 255 260 264 255 250 249 250 253
Height
1533 1534 1534 1536 1538 1540 1541 1543 1544 1546 1547 1547 1548 1548 1548 1548 1549 1549 1549 1550 1551 1551 1552 1552 1553 1554 1554 1554 1554 1554 1553 1553 1552 1552 1552 1551 1552 1552 1552 1553 1553 1552 1551
1532 1534 1535 1537 1540 1541 1543 1544 1546 1547 1548 1549 1549 1549 1549 1550 1550 1551 1552 1553 1553 1554 1554 1554 1555 1555 1556 1556 1556 1556 1555 1555 1555 1554 1554 1554 1555 1554 1554 1555 1555 1553 1553
1530 1533 1535 1537 1539 1541 1543 1545 1547 1548 1549 1550 1551 1551 1551 1551 1552 1553 1554 1555 1556 1556 1556 1556 1557 1558 1558 1558 1558 1557 1557 1557 1557 1557 1557 1559 1558 1557 1557 1557 1556 1555 1555
1530 1533 1536 1537 1539 1541 1544 1545 1547 1548 1550 1551 1552 1552 1553 1553 1554 1555 1556 1557 1557 1558 1558 1558 1559 1559 1559 1559 1559 1559 1559 1559 1559 1560 1562 1562 1561 1559 1559 1559 1558 1558 1557
1531 1534 1535 1536 1538 1541 1543 1545 1546 1548 1550 1551 1552 1553 1553 1554 1555 1556 1558 1558 1559 1559 1559 1560 1560 1560 1561 1561 1561 1561 1561 1561 1561 1563 1562 1563 1564 1562 1562 1561 1561 1560 1559
1532 1534 1535 1536 1538 1541 1543 1545 1546 1548 1550 1551 1552 1553 1554 1555 1557 1558 1559 1559 1560 1560 1561 1562 1562 1562 1562 1563 1563 1563 1563 1563 1565 1566 1564 1564 1565 1563 1564 1563 1563 1563 1562
1531 1534 1535 1536 1539 1540 1543 1544 1546 1547 1549 1551 1552 1553 1554 1555 1557 1558 1559 1561 1562 1562 1562 1563 1563 1563 1563 1564 1564 1564 1564 1565 1568 1568 1568 1566 1566 1565 1565 1565 1565 1564 1563
1531 1532 1536 1537 1539 1542 1542 1544 1546 1548 1549 1551 1552 1553 1555 1555 1557 1559 1560 1561 1563 1563 1564 1564 1564 1565 1565 1565 1565 1566 1566 1566 1569 1569 1568 1568 1567 1567 1566 1566 1566 1566 1565
1532 1532 1533 1536 1538 1541 1542 1545 1547 1548 1550 1551 1552 1554 1555 1556 1557 1559 1560 1562 1563 1564 1565 1565 1565 1566 1566 1566 1566 1567 1568 1568 1570 1570 1570 1569 1567 1567 1567 1567 1567 1567 1567
1532 1533 1533 1534 1536 1539 1541 1544 1546 1547 1550 1552 1553 1554 1555 1556 1558 1559 1560 1562 1563 1564 1565 1566 1566 1567 1567 1567 1568 1568 1569 1570 1571 1570 1572 1569 1569 1569 1568 1568 1568 1568 1568
1533 1532 1533 1533 1534 1536 1538 1541 1543 1546 1548 1550 1553 1554 1556 1557 1558 1559 1560 1561 1563 1564 1565 1567 1567 1567 1568 1568 1569 1569 1570 1572 1572 1573 1572 1570 1570 1570 1570 1570 1570 1569 1569
1532 1532 1532 1532 1533 1534 1536 1538 1540 1543 1545 1548 1550 1551 1554 1556 1557 1558 1559 1561 1563 1564 1565 1567 1568 1568 1569 1569 1569 1570 1572 1572 1573 1573 1572 1571 1571 1571 1572 1571 1571 1570 1570
1529 1530 1530 1531 1531 1532 1533 1535 1537 1539 1542 1544 1545 1548 1551 1553 1555 1556 1558 1560 1561 1563 1565 1566 1567 1568 1570 1571 1570 1571 1572 1573 1573 1573 1572 1572 1572 1572 1572 1572 1572 1571 1570
1524 1527 1528 1528 1529 1529 1530 1531 1533 1535 1537 1540 1542 1544 1545 1548 1552 1553 1555 1557 1560 1561 1564 1565 1567 1568 1569 1570 1571 1572 1572 1573 1573 1573 1573 1572 1573 1573 1573 1572 1572 1571 1571
1518 1520 1523 1524 1525 1526 1527 1527 1528 1530 1532 1535 1538 1540 1542 1545 1548 1550 1552 1554 1556 1559 1561 1563 1566 1567 1568 1570 1571 1572 1572 1573 1573 1573 1573 1572 1572 1572 1572 1572 1572 1571 1571
1513 1513 1516 1518 1520 1521 1523 1524 1524 1526 1528 1530 1532 1535 1538 1541 1544 1546 1548 1550 1553 1555 1558 1560 1562 1565 1566 1568 1569 1570 1571 1572 1572 1572 1572 1571 1571 1571 1571 1571 1571 1570 1570
1506 1506 1507 1510 1512 1514 1517 1519 1520 1521 1523 1525 1527 1529 1532 1535 1539 1542 1545 1547 1549 1551 1554 1556 1559 1561 1563 1565 1567 1569 1569 1571 1571 1571 1572 1572 1570 1570 1570 1569 1569 1569 1569
1498 1498 1500 1502 1504 1507 1509 1512 1514 1515 1517 1519 1521 1524 1526 1529 1533 1536 1539 1542 1545 1548 1550 1553 1555 1558 1560 1561 1564 1566 1568 1568 1570 1570 1570 1570 1570 1569 1569 1568 1568 1567 1567
1489 1489 1491 1493 1495 1497 1500 1503 1506 1508 1510 1512 1514 1517 1520 1523 1527 1530 1533 1538 1540 1543 1545 1548 1551 1554 1558 1560 1561 1562 1564 1565 1566 1567 1568 1568 1568 1567 1567 1567 1566 1566 1566
1480 1480 1482 1484 1486 1489 1491 1493 1496 1499 1502 1505 1506 1509 1513 1516 1519 1524 1527 1532 1536 1537 1541 1543 1547 1549 1553 1558 1559 1560 1561 1561 1562 1563 1564 1565 1565 1565 1565 1565 1565 1564 1564
1471 1471 1472 1474 1476 1480 1482 1484 1487 1489 1493 1496 1499 1503 1506 1509 1512 1517 1520 1525 1529 1531 1534 1538 1542 1545 1547 1552 1556 1557 1558 1558 1558 1558 1559 1560 1561 1562 1562 1562 1562 1561 1561
1463 1463 1463 1464 1467 1470 1473 1476 1479 1482 1484 1488 1492 1495 1499 1502 1505 1509 1513 1516 1521 1526 1530 1532 1535 1539 1543 1546 1550 1555 1555 1556 1554 1554 1555 1555 1556 1557 1557 1558 1558 1558 1558
1456 1454 1454 1455 1457 1460 1464 1467 1470 1473 1476 1479 1481 1485 1489 1494 1498 1501 1505 1508 1513 1519 1523 1525 1529 1533 1537 1540 1543 1548 1550 1548 1550 1550 1549 1550 1551 1552 1553 1554 1554 1555 1555
1448 1446 1445 1445 1447 1450 1454 1457 1460 1463 1465 1469 1474 1477 1482 1486 1490 1494 1497 1500 1505 1510 1515 1519 1523 1526 1531 1534 1537 1540 1543 1544 1545 1546 1544 1544 1545 1546 1546 1548 1549 1550 1550
1438 1436 1435 1436 1438 1442 1445 1448 1451 1454 1458 1464 1467 1471 1474 1478 1483 1486 1490 1493 1497 1501 1507 1511 1516 1520 1523 1528 1528 1534 1537 1538 1539 1541 1541 1539 1540 1541 1541 1543 1544 1545 1545
1428 1426 1426 1427 1429 1432 1435 1438 1442 1447 1453 1457 1461 1464 1467 1471 1474 1478 1482 1485 1490 1493 1497 1503 1508 1512 1517 1520 1524 1527 1529 1531 1533 1535 1538 1538 1537 1537 1537 1537 1538 1539 1540